This is the latest recevied weather packets stored in our database for station/object SA6BET-2. If no packets are shown the sender has not sent any weather packets the latest 10 day(s).
| Time | Temp. | Humidity | Pressure | Rain* | Wind** | Luminosity | Snow |
|---|---|---|---|---|---|---|---|
| 1777799064 | 20° C | 100% | 1018.8 hPa | - | - | - | - |
| 1777798164 | 20° C | 100% | 1018.7 hPa | - | - | - | - |
| 1777797264 | 20° C | 100% | 1018.6 hPa | - | - | - | - |
| 1777796363 | 18.89° C | 100% | 1018.9 hPa | - | - | - | - |
| 1777795463 | 19.44° C | 100% | 1018.7 hPa | - | - | - | - |
| 1777794563 | 18.89° C | 100% | 1018.9 hPa | - | - | - | - |
| 1777793663 | 18.89° C | 100% | 1018.8 hPa | - | - | - | - |
| 1777792763 | 18.33° C | 100% | 1018.6 hPa | - | - | - | - |
| 1777791863 | 18.33° C | 100% | 1018.4 hPa | - | - | - | - |
| 1777790962 | 18.33° C | 100% | 1018.6 hPa | - | - | - | - |
| 1777790062 | 18.33° C | 100% | 1018.7 hPa | - | - | - | - |
| 1777789162 | 17.78° C | 100% | 1018.7 hPa | - | - | - | - |
| 1777788262 | 17.78° C | 100% | 1018.8 hPa | - | - | - | - |
| 1777787362 | 17.22° C | 100% | 1018.6 hPa | - | - | - | - |
| 1777786462 | 17.78° C | 100% | 1018.2 hPa | - | - | - | - |
| 1777785561 | 17.22° C | 100% | 1018.1 hPa | - | - | - | - |
| 1777784661 | 17.22° C | 100% | 1017.8 hPa | - | - | - | - |
| 1777783761 | 17.22° C | 100% | 1017.9 hPa | - | - | - | - |
| 1777782861 | 17.78° C | 100% | 1017.8 hPa | - | - | - | - |
| 1777781961 | 17.22° C | 100% | 1017.8 hPa | - | - | - | - |
| 1777781061 | 17.22° C | 100% | 1017.2 hPa | - | - | - | - |
| 1777780161 | 17.22° C | 100% | 1017.1 hPa | - | - | - | - |
| 1777779260 | 17.22° C | 100% | 1016.9 hPa | - | - | - | - |
| 1777778360 | 17.22° C | 100% | 1016.9 hPa | - | - | - | - |
| 1777777460 | 17.22° C | 100% | 1017.3 hPa | - | - | - | - |
* Rain since midnight (hover to see other rain measurements)
** Current wind speed in m/s (hover to see current wind gust speed)